Location: Marineo
(37.9500°N, 13.4170°E)
Time: 14:53:53
(UTC+01:00)

ISS - Pass Details

Date: 24 January 2019
Orbit: 403 x 411 km, 51.6° (Epoch: 18 February)

Event Time Altitude Azimuth Distance (km) Brightness Sun altitude
Rises 17:40:31 0° 221° (SW) 2,313 1.3 -4.5°
Reaches altitude 10° 17:42:36 10° 217° (SW) 1,459 0.0 -4.9°
Maximum altitude 17:45:49 58° 138° (SE) 477 -3.6 -5.5°
Drops below altitude 10° 17:49:04 10° 57° (ENE) 1,473 -1.6 -6.1°
Enters shadow 17:49:34 - 56° (NE) 1,674 -1.3 -6.2°
